| time (UTC) | temp F | wind direction | speed MPH | gust MPH | rain 1hr in | rain 24hr in | rain mn in | humidity % | barometer mb |
| 20260507193031 | 71 | 42 | 5.0 | 10.0 | 0.00 | 0.00 | 0.00 | 39 | 1019.3 |
| 20260507191534 | 70 | 62 | 4.0 | 11.0 | 0.00 | 0.00 | 0.00 | 40 | 1019.5 |
| 20260507190029 | 69 | 45 | 5.0 | 11.0 | 0.00 | 0.00 | 0.00 | 43 | 1019.6 |
| 20260507184535 | 67 | 43 | 4.0 | 10.0 | 0.00 | 0.00 | 0.00 | 46 | 1019.8 |
| 20260507181531 | 67 | 34 | 5.0 | 10.0 | 0.00 | 0.00 | 0.00 | 48 | 1020.0 |
| 20260507180107 | 66 | 44 | 6.0 | 14.0 | 0.00 | 0.00 | 0.00 | 50 | 1020.0 |
| 20260507174530 | 65 | 52 | 5.0 | 11.0 | 0.00 | 0.00 | 0.00 | 52 | 1020.0 |
| 20260507173034 | 65 | 40 | 6.0 | 12.0 | 0.00 | 0.00 | 0.00 | 53 | 1020.2 |
| 20260507171609 | 65 | 62 | 6.0 | 12.0 | 0.00 | 0.00 | 0.00 | 54 | 1020.2 |
| 20260507170033 | 64 | 40 | 6.0 | 10.0 | 0.00 | 0.00 | 0.00 | 56 | 1020.2 |
| 20260507164531 | 63 | 15 | 4.0 | 9.0 | 0.00 | 0.00 | 0.00 | 58 | 1020.2 |
| 20260507163031 | 61 | 279 | 4.0 | 10.0 | 0.00 | 0.00 | 0.00 | 61 | 1020.1 |
| 20260507161539 | 59 | 292 | 4.0 | 9.0 | 0.00 | 0.00 | 0.00 | 67 | 1020.2 |
| 20260507153033 | 52 | 333 | 1.0 | 4.0 | 0.00 | 0.00 | 0.00 | 84 | 1020.8 |
| 20260507151621 | 50 | 305 | 1.0 | 3.0 | 0.00 | 0.00 | 0.00 | 86 | 1020.8 |
| 20260507144531 | 48 | 336 | 1.0 | 3.0 | 0.00 | 0.00 | 0.00 | 89 | 1020.9 |
| 20260507141535 | 46 | 100 | 2.0 | 5.0 | 0.00 | 0.00 | 0.00 | 91 | 1020.7 |
| 20260507140107 | 45 | 108 | 2.0 | 4.0 | 0.00 | 0.00 | 0.00 | 90 | 1020.5 |
| 20260507134535 | 44 | 128 | 2.0 | 5.0 | 0.00 | 0.00 | 0.00 | 90 | 1020.4 |
| 20260507133109 | 44 | 104 | 3.0 | 6.0 | 0.00 | 0.00 | 0.00 | 89 | 1020.5 |
| 20260507131536 | 44 | 92 | 4.0 | 6.0 | 0.00 | 0.00 | 0.00 | 89 | 1020.4 |
| 20260507130110 | 45 | 106 | 3.0 | 6.0 | 0.00 | 0.00 | 0.00 | 88 | 1020.3 |
| 20260507124626 | 45 | 99 | 3.0 | 7.0 | 0.00 | 0.00 | 0.00 | 87 | 1020.4 |
| 20260507123042 | 46 | 93 | 2.0 | 5.0 | 0.00 | 0.00 | 0.00 | 87 | 1020.2 |
| 20260507121538 | 46 | 79 | 4.0 | 8.0 | 0.00 | 0.00 | 0.00 | 86 | 1020.0 |
| 20260507114544 | 46 | 85 | 4.0 | 9.0 | 0.00 | 0.00 | 0.00 | 86 | 1020.0 |
| 20260507111543 | 47 | 111 | 3.0 | 8.0 | 0.00 | 0.00 | 0.00 | 84 | 1019.7 |
| 20260507110129 | 48 | 131 | 2.0 | 5.0 | 0.00 | 0.00 | 0.00 | 82 | 1019.7 |
| 20260507104541 | 49 | 74 | 5.0 | 8.0 | 0.00 | 0.00 | 0.00 | 81 | 1019.6 |
| 20260507103042 | 50 | 82 | 5.0 | 9.0 | 0.00 | 0.00 | 0.00 | 80 | 1019.6 |
| 20260507101540 | 51 | 93 | 4.0 | 9.0 | 0.00 | 0.00 | 0.00 | 78 | 1019.6 |
| 20260507100052 | 51 | 84 | 5.0 | 10.0 | 0.00 | 0.00 | 0.00 | 75 | 1019.6 |
| 20260507094540 | 52 | 84 | 4.0 | 7.0 | 0.00 | 0.00 | 0.00 | 71 | 1019.6 |
| 20260507093032 | 53 | 52 | 2.0 | 7.0 | 0.00 | 0.00 | 0.00 | 71 | 1019.7 |
| 20260507091532 | 53 | 313 | 2.0 | 6.0 | 0.00 | 0.00 | 0.00 | 72 | 1019.6 |
| 20260507084530 | 54 | 14 | 6.0 | 11.0 | 0.00 | 0.00 | 0.00 | 71 | 1019.6 |
| 20260507083038 | 53 | 5 | 6.0 | 11.0 | 0.00 | 0.00 | 0.00 | 75 | 1019.7 |
| 20260507081531 | 53 | 21 | 6.0 | 11.0 | 0.00 | 0.00 | 0.00 | 73 | 1019.7 |
| 20260507080029 | 55 | 12 | 7.0 | 12.0 | 0.00 | 0.00 | 0.00 | 70 | 1019.7 |
| 20260507074531 | 57 | 7 | 8.0 | 14.0 | 0.00 | 0.00 | 0.00 | 64 | 1019.6 |
| 20260507073032 | 59 | 348 | 9.0 | 17.0 | 0.00 | 0.00 | 0.00 | 56 | 1019.4 |
| 20260507071537 | 59 | 329 | 10.0 | 18.0 | 0.00 | 0.00 | 0.00 | 55 | 1019.4 |
| 20260507070108 | 59 | 327 | 12.0 | 21.0 | 0.00 | 0.00 | 0.00 | 58 | 1019.4 |
| 20260507064647 | 57 | 325 | 13.0 | 21.0 | 0.00 | 0.00 | 0.00 | 63 | 1019.6 |
| 20260507063110 | 57 | 334 | 8.0 | 16.0 | 0.00 | 0.00 | 0.00 | 65 | 1019.9 |
| 20260507061530 | 57 | 32 | 6.0 | 12.0 | 0.00 | 0.00 | 0.00 | 64 | 1020.1 |
| 20260507060028 | 56 | 65 | 7.0 | 14.0 | 0.00 | 0.00 | 0.00 | 61 | 1020.1 |
| 20260507054613 | 57 | 72 | 6.0 | 11.0 | 0.00 | 0.00 | 0.00 | 58 | 1020.2 |
| 20260507051610 | 60 | 14 | 7.0 | 15.0 | 0.00 | 0.00 | 0.00 | 51 | 1020.3 |
| 20260507050041 | 61 | 313 | 11.0 | 19.0 | 0.00 | 0.00 | 0.00 | 50 | 1020.1 |
| 20260507043030 | 61 | 312 | 11.0 | 18.0 | 0.00 | 0.00 | 0.00 | 50 | 1020.2 |
| 20260507041535 | 61 | 316 | 10.0 | 19.0 | 0.00 | 0.00 | 0.00 | 49 | 1020.2 |
| 20260507040043 | 62 | 318 | 10.0 | 16.0 | 0.00 | 0.00 | 0.00 | 49 | 1020.1 |
| 20260507034533 | 62 | 323 | 11.0 | 20.0 | 0.00 | 0.00 | 0.00 | 48 | 1020.0 |
| 20260507033029 | 63 | 321 | 11.0 | 21.0 | 0.00 | 0.00 | 0.00 | 48 | 1019.8 |
| 20260507031529 | 64 | 319 | 12.0 | 23.0 | 0.00 | 0.00 | 0.00 | 47 | 1019.7 |
| 20260507030030 | 65 | 324 | 10.0 | 20.0 | 0.00 | 0.00 | 0.00 | 47 | 1019.7 |
| 20260507024530 | 65 | 333 | 7.0 | 17.0 | 0.00 | 0.00 | 0.00 | 46 | 1019.6 |
| 20260507023035 | 66 | 334 | 12.0 | 23.0 | 0.00 | 0.00 | 0.00 | 45 | 1019.4 |
| 20260507021532 | 66 | 334 | 11.0 | 22.0 | 0.00 | 0.00 | 0.00 | 45 | 1019.4 |
| 20260507020036 | 66 | 355 | 6.0 | 20.0 | 0.00 | 0.00 | 0.00 | 47 | 1019.5 |
| 20260507013035 | 68 | 19 | 5.0 | 11.0 | 0.00 | 0.00 | 0.00 | 45 | 1019.3 |
| 20260507011529 | 68 | 3 | 5.0 | 14.0 | 0.00 | 0.00 | 0.00 | 43 | 1019.3 |
| 20260507010032 | 69 | 360 | 7.0 | 13.0 | 0.00 | 0.00 | 0.00 | 42 | 1019.1 |
| 20260507003033 | 70 | 333 | 9.0 | 18.0 | 0.00 | 0.00 | 0.00 | 40 | 1018.7 |
| 20260507001536 | 72 | 341 | 9.0 | 19.0 | 0.00 | 0.00 | 0.00 | 40 | 1018.6 |
| 20260506234536 | 73 | 350 | 8.0 | 17.0 | 0.00 | 0.00 | 0.00 | 40 | 1018.5 |
| 20260506233110 | 76 | 343 | 10.0 | 21.0 | 0.00 | 0.00 | 0.00 | 35 | 1018.4 |
| 20260506231535 | 77 | 341 | 11.0 | 21.0 | 0.00 | 0.00 | 0.00 | 35 | 1018.3 |
| 20260506230111 | 76 | 336 | 11.0 | 24.0 | 0.00 | 0.00 | 0.00 | 35 | 1018.4 |
| 20260506224535 | 76 | 319 | 14.0 | 27.0 | 0.00 | 0.00 | 0.00 | 35 | 1018.7 |
| 20260506223034 | 76 | 320 | 14.0 | 25.0 | 0.00 | 0.00 | 0.00 | 33 | 1018.9 |
| 20260506220029 | 77 | 330 | 13.0 | 25.0 | 0.00 | 0.00 | 0.00 | 33 | 1018.5 |
| 20260506214612 | 0 | 0 | 0.0 | 0.0 | 0.00 | 0.00 | 0.00 | 100 | |
| 20260506213031 | 77 | 324 | 13.0 | 24.0 | 0.00 | 0.00 | 0.00 | 34 | 1018.6 |
| 20260506210036 | 77 | 351 | 9.0 | 19.0 | 0.00 | 0.00 | 0.00 | 42 | 1018.8 |
| 20260506204642 | 77 | 10 | 8.0 | 19.0 | 0.00 | 0.00 | 0.00 | 43 | 1018.9 |
| 20260506203030 | 76 | 32 | 8.0 | 15.0 | 0.00 | 0.00 | 0.00 | 44 | 1019.0 |
| 20260506194532 | 74 | 65 | 4.0 | 10.0 | 0.00 | 0.00 | 0.00 | 48 | 1019.3 |